| time (UTC) | temp C | wind direction | speed KPH | gust KPH | rain 1hr cm | rain 24hr cm | rain mn cm | humidity % | barometer mb |
| 20260503223339 | 28 | 343 | 9.7 | 22.5 | 0.00 | 0.00 | 0.00 | 40 | 1009.6 |
| 20260503221826 | 28 | 29 | 8.0 | 20.9 | 0.00 | 0.00 | 0.00 | 41 | 1009.9 |
| 20260503220353 | 27 | 36 | 8.0 | 19.3 | 0.00 | 0.00 | 0.00 | 39 | 1010.0 |
| 20260503214849 | 27 | 339 | 8.0 | 16.1 | 0.00 | 0.00 | 0.00 | 41 | 1010.2 |
| 20260503213330 | 27 | 1 | 8.0 | 16.1 | 0.00 | 0.00 | 0.00 | 43 | 1010.2 |
| 20260503211831 | 26 | 2 | 4.8 | 17.7 | 0.00 | 0.00 | 0.00 | 41 | 1010.5 |
| 20260503210338 | 26 | 331 | 8.0 | 17.7 | 0.00 | 0.00 | 0.00 | 41 | 1010.7 |
| 20260503204839 | 26 | 356 | 11.3 | 20.9 | 0.00 | 0.00 | 0.00 | 43 | 1010.8 |
| 20260503203345 | 25 | 304 | 8.0 | 19.3 | 0.00 | 0.00 | 0.00 | 43 | 1011.0 |
| 20260503201822 | 25 | 308 | 4.8 | 17.7 | 0.00 | 0.00 | 0.00 | 44 | 1011.2 |
| 20260503200327 | 25 | 325 | 6.4 | 19.3 | 0.00 | 0.00 | 0.00 | 45 | 1011.2 |
| 20260503194829 | 25 | 30 | 11.3 | 19.3 | 0.00 | 0.00 | 0.00 | 47 | 1011.5 |
| 20260503193349 | 24 | 356 | 11.3 | 19.3 | 0.00 | 0.00 | 0.00 | 49 | 1011.6 |
| 20260503191829 | 23 | 358 | 8.0 | 17.7 | 0.00 | 0.00 | 0.00 | 50 | 1011.8 |
| 20260503190327 | 23 | 357 | 6.4 | 16.1 | 0.00 | 0.00 | 0.00 | 51 | 1012.0 |
| 20260503184904 | 22 | 324 | 9.7 | 16.1 | 0.00 | 0.00 | 0.00 | 56 | 1011.9 |
| 20260503183339 | 22 | 352 | 8.0 | 17.7 | 0.00 | 0.00 | 0.00 | 57 | 1012.3 |
| 20260503181823 | 21 | 4 | 6.4 | 14.5 | 0.00 | 0.00 | 0.00 | 59 | 1012.3 |
| 20260503180325 | 21 | 338 | 6.4 | 16.1 | 0.00 | 0.00 | 0.00 | 61 | 1012.5 |
| 20260503174852 | 20 | 334 | 6.4 | 14.5 | 0.00 | 0.00 | 0.00 | 64 | 1012.7 |
| 20260503173331 | 19 | 3 | 6.4 | 12.9 | 0.00 | 0.00 | 0.00 | 64 | 1012.7 |
| 20260503171832 | 18 | 1 | 6.4 | 12.9 | 0.00 | 0.00 | 0.00 | 66 | 1012.9 |
| 20260503170343 | 17 | 358 | 4.8 | 9.7 | 0.00 | 0.00 | 0.00 | 69 | 1012.9 |
| 20260503150322 | 12 | 117 | 1.6 | 6.4 | 0.00 | 0.00 | 0.00 | 88 | 1013.2 |
| 20260503130326 | 12 | 88 | 0.0 | 0.0 | 0.00 | 0.00 | 0.00 | 84 | 1013.0 |
| 20260503110322 | 13 | 113 | 0.0 | 0.0 | 0.00 | 0.00 | 0.00 | 80 | 1013.0 |
| 20260503090354 | 15 | 98 | 0.0 | 3.2 | 0.00 | 0.00 | 0.00 | 70 | 1013.3 |
| 20260503080325 | 15 | 98 | 0.0 | 0.0 | 0.00 | 0.00 | 0.00 | 66 | 1013.4 |
| 20260503071830 | 16 | 100 | 3.2 | 4.8 | 0.00 | 0.00 | 0.00 | 65 | 1013.4 |
| 20260503070337 | 16 | 84 | 3.2 | 8.0 | 0.00 | 0.00 | 0.00 | 64 | 1013.3 |
| 20260503054829 | 17 | 54 | 3.2 | 8.0 | 0.00 | 0.00 | 0.00 | 59 | 1013.1 |
| 20260503053331 | 18 | 50 | 4.8 | 8.0 | 0.00 | 0.00 | 0.00 | 59 | 1013.0 |
| 20260503051854 | 18 | 63 | 3.2 | 8.0 | 0.00 | 0.00 | 0.00 | 57 | 1013.1 |
| 20260503050339 | 18 | 56 | 1.6 | 8.0 | 0.00 | 0.00 | 0.00 | 54 | 1013.1 |
| 20260503044845 | 19 | 51 | 6.4 | 14.5 | 0.00 | 0.00 | 0.00 | 53 | 1013.1 |
| 20260503043322 | 19 | 36 | 3.2 | 9.7 | 0.00 | 0.00 | 0.00 | 53 | 1012.8 |
| 20260503041852 | 20 | 36 | 4.8 | 8.0 | 0.00 | 0.00 | 0.00 | 52 | 1012.6 |
| 20260503040331 | 20 | 55 | 4.8 | 9.7 | 0.00 | 0.00 | 0.00 | 54 | 1012.4 |
| 20260503034829 | 20 | 36 | 4.8 | 9.7 | 0.00 | 0.00 | 0.00 | 57 | 1012.1 |
| 20260503033336 | 21 | 56 | 3.2 | 9.7 | 0.00 | 0.00 | 0.00 | 56 | 1011.9 |
| 20260503031823 | 21 | 41 | 4.8 | 9.7 | 0.00 | 0.00 | 0.00 | 55 | 1011.9 |
| 20260503030328 | 22 | 5 | 6.4 | 14.5 | 0.00 | 0.00 | 0.00 | 54 | 1011.6 |
| 20260503024834 | 23 | 12 | 6.4 | 16.1 | 0.00 | 0.00 | 0.00 | 53 | 1011.5 |
| 20260503023331 | 23 | 36 | 8.0 | 17.7 | 0.00 | 0.00 | 0.00 | 53 | 1011.2 |
| 20260503021903 | 24 | 27 | 6.4 | 17.7 | 0.00 | 0.00 | 0.00 | 52 | 1011.3 |
| 20260503020337 | 24 | 343 | 8.0 | 19.3 | 0.00 | 0.00 | 0.00 | 51 | 1011.3 |
| 20260503014824 | 24 | 10 | 9.7 | 19.3 | 0.00 | 0.00 | 0.00 | 49 | 1011.4 |
| 20260503013326 | 25 | 337 | 6.4 | 20.9 | 0.00 | 0.00 | 0.00 | 48 | 1011.6 |
| 20260503011827 | 25 | 14 | 8.0 | 20.9 | 0.00 | 0.00 | 0.00 | 47 | 1011.7 |
| 20260503010353 | 25 | 347 | 12.9 | 17.7 | 0.00 | 0.00 | 0.00 | 47 | 1011.7 |
| 20260503004833 | 25 | 36 | 8.0 | 17.7 | 0.00 | 0.00 | 0.00 | 48 | 1011.6 |
| 20260503003334 | 25 | 31 | 9.7 | 20.9 | 0.00 | 0.00 | 0.00 | 47 | 1011.7 |
| 20260503001836 | 25 | 326 | 11.3 | 22.5 | 0.00 | 0.00 | 0.00 | 47 | 1011.7 |
| 20260503000328 | 25 | 343 | 9.7 | 19.3 | 0.00 | 0.00 | 0.00 | 48 | 1011.9 |
| 20260502234830 | 25 | 36 | 9.7 | 22.5 | 0.00 | 0.00 | 0.00 | 47 | 1012.3 |
| 20260502233330 | 25 | 327 | 12.9 | 20.9 | 0.00 | 0.00 | 0.00 | 48 | 1012.3 |
| 20260502231848 | 24 | 8 | 12.9 | 20.9 | 0.00 | 0.00 | 0.00 | 49 | 1012.6 |
| 20260502230327 | 24 | 330 | 12.9 | 25.7 | 0.00 | 0.00 | 0.00 | 48 | 1012.8 |
| 20260502224829 | 24 | 27 | 8.0 | 22.5 | 0.00 | 0.00 | 0.00 | 49 | 1012.9 |